Location: Frizzleburg
(41.0764°N, 80.4548°W)
Time: 10:55:38
(UTC+00:00)

Cosmos 1833 - Pass Details

Date: 17 November 2019
Orbit: 835 x 864 km, 70.9° (Epoch: 14 December)

Event Time Altitude Azimuth Distance (km) Brightness Sun altitude
Rises 11:31:06 0° 210° (SSW) 3,370 7.2 -7.9°
Reaches altitude 10° 11:33:33 10° 214° (SSW) 2,438 6.5 -7.5°
Maximum altitude 11:39:06 65° 296° (WNW) 914 4.2 -6.5°
Drops below altitude 10° 11:44:42 10° 18° (NNE) 2,456 6.6 -5.5°
Sets 11:47:11 0° 22° (NNE) 3,397 7.4 -5.1°
